CYHA

Quaqtaq Airport

ICAO Code CYHA
IATA Code YQC
Name Quaqtaq Airport
Location Quaqtaq, Quebec, CA
Elevation 106 Feet / 32.3 Meters
Latitude 61.04638889
Longitude -69.61777778
METAR CYHA 251300Z 28007KT 15SM BKN130 01/M02 A2994 RMK AC7 LAST OBS/NEXT 261200 UTC SLP144
Extra information Display Charts and CFS
Display NOTAMS
Runway Length Width Surface Elevation
36 3520 ft 100 ft GRAVEL 104 ft
18 3520 ft 100 ft GRAVEL 95 ft